This is the latest recevied weather packets stored in our database for station/object N0KTA-2. If no packets are shown the sender has not sent any weather packets the latest 10 day(s).
| Time | Temp. | Humidity | Pressure | Rain* | Wind** | Luminosity | Snow |
|---|---|---|---|---|---|---|---|
| 1777770564 | 19.44° C | 34% | 1014.7 hPa | 0 mm | - | - | - |
| 1777769965 | 20.56° C | 31% | 1014.8 hPa | 0 mm | - | - | - |
| 1777769364 | 21.11° C | 30% | 1014.7 hPa | 0 mm | - | - | - |
| 1777768765 | 21.11° C | 29% | 1014.7 hPa | 0 mm | - | - | - |
| 1777768164 | 21.11° C | 27% | 1014.7 hPa | 0 mm | - | - | - |
| 1777767565 | 20.56° C | 28% | 1014.9 hPa | 0 mm | - | - | - |
| 1777766963 | 20.56° C | 29% | 1014.9 hPa | 0 mm | - | - | - |
| 1777766364 | 20.56° C | 28% | 1015.3 hPa | 0 mm | - | - | - |
| 1777765764 | 20.56° C | 27% | 1015.4 hPa | 0 mm | - | - | - |
| 1777765165 | 20.56° C | 27% | 1015.4 hPa | 0 mm | - | - | - |
| 1777764564 | 20° C | 26% | 1015.5 hPa | 0 mm | - | - | - |
| 1777763965 | 20° C | 26% | 1015.5 hPa | 0 mm | - | - | - |
| 1777763364 | 20.56° C | 27% | 1015.5 hPa | 0 mm | - | - | - |
| 1777762765 | 20.56° C | 30% | 1015.5 hPa | 0 mm | - | - | - |
| 1777762164 | 20.56° C | 29% | 1015.5 hPa | 0 mm | - | - | - |
| 1777761565 | 20.56° C | 30% | 1015.5 hPa | 0 mm | - | - | - |
| 1777760964 | 20.56° C | 31% | 1015.5 hPa | 0 mm | - | - | - |
| 1777760364 | 20.56° C | 29% | 1015.7 hPa | 0 mm | - | - | - |
| 1777759765 | 20.56° C | 30% | 1015.8 hPa | 0 mm | - | - | - |
| 1777759163 | 20.56° C | 28% | 1015.9 hPa | 0 mm | - | - | - |
| 1777758564 | 20° C | 30% | 1016 hPa | 0 mm | - | - | - |
| 1777757964 | 20.56° C | 32% | 1016 hPa | 0 mm | - | - | - |
| 1777757365 | 20° C | 32% | 1016.2 hPa | 0 mm | - | - | - |
| 1777756764 | 20° C | 32% | 1016.5 hPa | 0 mm | - | - | - |
| 1777756165 | 20° C | 34% | 1016.5 hPa | 0 mm | - | - | - |
* Rain latest hour (hover to see other rain measurements)
** Current wind speed in m/s (hover to see current wind gust speed)